• In Czech Republic
  • List of Countries
  • For 7 days
  • Water Temperature
  • Satellite Maps
  • Weather Map
  • Weather Widgets
  • user-avatar
    Login

    Hourly Weather Jalapa

    Today, 17 October, Wednesday

    Time Temperature Precipitation Wind Pressure Humidity
    00:00 +19°C° 4.6 mm 1 mps 640 mmHg 97%
    01:00 +19°C° 2.3 mm 1 mps 640 mmHg 97%
    02:00 +19°C° 2.3 mm 1 mps 640 mmHg 97%
    03:00 +16°C° 2.3 mm 0 mps 640 mmHg 97%
    04:00 +16°C° 0.9 mm 0 mps 640 mmHg 97%
    05:00 +16°C° 0.9 mm 0 mps 640 mmHg 97%
    06:00 +16°C° 0.9 mm 0 mps 640 mmHg 97%
    07:00 +19°C° 0.2 mm 1 mps 641 mmHg 94%
    08:00 +20°C° 0.2 mm 1 mps 641 mmHg 91%
    09:00 +21°C° 0.2 mm 1 mps 642 mmHg 88%
    10:00 +22°C° 0.5 mm 1 mps 642 mmHg 86%
    11:00 +22°C° 0.5 mm 1 mps 642 mmHg 85%
    12:00 +23°C° 0.5 mm 1 mps 641 mmHg 83%
    13:00 +22°C° 1.4 mm 1 mps 641 mmHg 85%
    14:00 +22°C° 1.4 mm 1 mps 640 mmHg 86%
    15:00 +22°C° 1.4 mm 1 mps 640 mmHg 88%
    16:00 +21°C° 1.9 mm 1 mps 640 mmHg 90%
    17:00 +20°C° 1.9 mm 1 mps 640 mmHg 93%
    18:00 +19°C° 1.9 mm 1 mps 640 mmHg 95%
    19:00 +19°C° 2.6 mm 1 mps 640 mmHg 96%
    20:00 +19°C° 2.6 mm 1 mps 640 mmHg 96%
    21:00 +19°C° 2.6 mm 1 mps 641 mmHg 97%
    22:00 +19°C° 1.7 mm 1 mps 641 mmHg 97%
    23:00 +18°C° 1.7 mm 1 mps 641 mmHg 97%

    Tomorrow, 18 October, Thursday

    Time Temperature Precipitation Wind Pressure Humidity
    00:00 +18°C° 1.7 mm 1 mps 641 mmHg 97%
    01:00 +18°C° 0.2 mm 1 mps 640 mmHg 97%
    02:00 +18°C° 0.2 mm 1 mps 640 mmHg 97%
    03:00 +18°C° 0.2 mm 1 mps 640 mmHg 97%
    04:00 +18°C° 0.1 mm 1 mps 640 mmHg 97%
    05:00 +18°C° 0.1 mm 1 mps 640 mmHg 97%
    06:00 +18°C° 0.1 mm 1 mps 640 mmHg 97%
    07:00 +19°C° 0.3 mm 1 mps 641 mmHg 94%
    08:00 +20°C° 0.3 mm 1 mps 642 mmHg 91%
    09:00 +21°C° 0.3 mm 1 mps 643 mmHg 89%
    10:00 +22°C° 0.7 mm 1 mps 643 mmHg 86%
    11:00 +23°C° 0.7 mm 1 mps 643 mmHg 83%
    12:00 +24°C° 0.7 mm 1 mps 643 mmHg 79%
    13:00 +23°C° 1.5 mm 1 mps 642 mmHg 82%
    14:00 +23°C° 1.5 mm 1 mps 641 mmHg 85%
    15:00 +22°C° 1.5 mm 1 mps 641 mmHg 89%
    16:00 +21°C° 1.8 mm 1 mps 641 mmHg 91%
    17:00 +20°C° 1.8 mm 1 mps 641 mmHg 93%
    18:00 +19°C° 1.8 mm 1 mps 641 mmHg 95%
    19:00 +19°C° 1.5 mm 1 mps 641 mmHg 95%
    20:00 +17°C° 1.5 mm 0 mps 642 mmHg 95%
    21:00 +16°C° 1.5 mm 0 mps 642 mmHg 95%
    22:00 +16°C° 0.8 mm 0 mps 642 mmHg 96%
    23:00 +16°C° 0.8 mm 0 mps 642 mmHg 96%

    Day after tomorrow, 19 October, Friday

    Time Temperature Precipitation Wind Pressure Humidity
    00:00 +16°C° 0.8 mm 0 mps 642 mmHg 96%
    01:00 +16°C° 0.4 mm 0 mps 641 mmHg 96%
    02:00 +15°C° 0.4 mm 0 mps 641 mmHg 96%
    03:00 +15°C° 0.4 mm 0 mps 641 mmHg 96%
    04:00 +15°C° 0.3 mm 0 mps 641 mmHg 96%
    05:00 +15°C° 0.3 mm 0 mps 641 mmHg 96%
    06:00 +15°C° 0.3 mm 0 mps 641 mmHg 96%
    07:00 +16°C° 0.2 mm 0 mps 642 mmHg 93%
    08:00 +19°C° 0.2 mm 1 mps 643 mmHg 89%
    09:00 +21°C° 0.2 mm 1 mps 644 mmHg 86%
    10:00 +22°C° 0.3 mm 1 mps 644 mmHg 82%
    11:00 +23°C° 0.3 mm 1 mps 644 mmHg 79%
    12:00 +24°C° 0.3 mm 1 mps 643 mmHg 76%
    13:00 +24°C° 0.5 mm 1 mps 643 mmHg 76%
    14:00 +23°C° 0.5 mm 1 mps 642 mmHg 76%
    15:00 +23°C° 0.5 mm 1 mps 641 mmHg 77%
    16:00 +22°C° 0.6 mm 1 mps 641 mmHg 82%
    17:00 +21°C° 0.6 mm 1 mps 641 mmHg 87%
    18:00 +19°C° 0.6 mm 1 mps 641 mmHg 92%
    19:00 +19°C° 0.3 mm 1 mps 641 mmHg 93%
    20:00 +18°C° 0.3 mm 1 mps 642 mmHg 94%
    21:00 +18°C° 0.3 mm 1 mps 642 mmHg 95%
    22:00 +18°C° 0.1 mm 1 mps 642 mmHg 95%
    23:00 +18°C° 0.1 mm 1 mps 642 mmHg 95%

    20 October, Saturday

    Time Temperature Precipitation Wind Pressure Humidity
    00:00 +18°C° 0.1 mm 1 mps 641 mmHg 96%
    01:00 +16°C° 0 mm 1 mps 641 mmHg 96%
    02:00 +16°C° 0 mm 1 mps 640 mmHg 96%
    03:00 +16°C° 0 mm 1 mps 640 mmHg 95%
    04:00 +16°C° 0 mm 1 mps 640 mmHg 95%
    05:00 +16°C° 0 mm 1 mps 640 mmHg 95%
    06:00 +16°C° 0 mm 1 mps 641 mmHg 95%
    07:00 +19°C° 0 mm 1 mps 641 mmHg 89%
    08:00 +20°C° 0 mm 1 mps 642 mmHg 84%
    09:00 +22°C° 0 mm 1 mps 643 mmHg 78%
    10:00 +23°C° 0.1 mm 2 mps 643 mmHg 73%
    11:00 +25°C° 0.1 mm 2 mps 643 mmHg 68%
    12:00 +26°C° 0.1 mm 2 mps 643 mmHg 63%
    13:00 +25°C° 1.1 mm 2 mps 642 mmHg 68%
    14:00 +25°C° 1.1 mm 2 mps 641 mmHg 72%
    15:00 +24°C° 1.1 mm 2 mps 640 mmHg 77%
    16:00 +23°C° 1.8 mm 1 mps 640 mmHg 82%
    17:00 +21°C° 1.8 mm 1 mps 640 mmHg 87%
    18:00 +20°C° 1.8 mm 1 mps 640 mmHg 92%
    19:00 +19°C° 1.6 mm 1 mps 641 mmHg 93%
    20:00 +19°C° 1.6 mm 1 mps 641 mmHg 94%
    21:00 +19°C° 1.6 mm 1 mps 642 mmHg 95%
    22:00 +19°C° 1.7 mm 1 mps 642 mmHg 95%
    23:00 +19°C° 1.7 mm 1 mps 641 mmHg 95%

    21 October, Sunday

    Time Temperature Precipitation Wind Pressure Humidity
    00:00 +19°C° 1.7 mm 1 mps 641 mmHg 95%
    01:00 +18°C° 1.3 mm 1 mps 641 mmHg 96%
    02:00 +18°C° 1.3 mm 1 mps 641 mmHg 96%
    03:00 +18°C° 1.3 mm 1 mps 641 mmHg 96%
    04:00 +18°C° 0.2 mm 1 mps 641 mmHg 96%
    05:00 +18°C° 0.2 mm 1 mps 641 mmHg 96%
    06:00 +18°C° 0.2 mm 1 mps 641 mmHg 96%
    07:00 +19°C° 0 mm 1 mps 642 mmHg 90%
    08:00 +20°C° 0 mm 2 mps 643 mmHg 85%
    09:00 +21°C° 0 mm 2 mps 644 mmHg 80%
    10:00 +23°C° 0 mm 2 mps 643 mmHg 74%
    11:00 +24°C° 0 mm 2 mps 643 mmHg 68%
    12:00 +25°C° 0 mm 2 mps 643 mmHg 63%
    13:00 +25°C° 0.1 mm 2 mps 643 mmHg 63%
    14:00 +25°C° 0.1 mm 2 mps 642 mmHg 63%
    15:00 +25°C° 0.1 mm 2 mps 641 mmHg 63%
    16:00 +23°C° 0.2 mm 2 mps 641 mmHg 71%
    17:00 +20°C° 0.2 mm 2 mps 641 mmHg 80%
    18:00 +19°C° 0.2 mm 1 mps 641 mmHg 88%
    19:00 +19°C° 0.1 mm 1 mps 641 mmHg 90%
    20:00 +18°C° 0.1 mm 1 mps 641 mmHg 92%
    21:00 +18°C° 0.1 mm 1 mps 642 mmHg 94%
    22:00 +16°C° 0 mm 1 mps 641 mmHg 94%
    23:00 +16°C° 0 mm 1 mps 641 mmHg 95%

    22 October, Monday

    Time Temperature Precipitation Wind Pressure Humidity
    00:00 +16°C° 0 mm 1 mps 641 mmHg 95%
    01:00 +16°C° 0 mm 1 mps 641 mmHg 95%
    02:00 +16°C° 0 mm 1 mps 640 mmHg 95%
    03:00 +15°C° 0 mm 2 mps 640 mmHg 95%
    04:00 +15°C° 0 mm 2 mps 640 mmHg 95%
    05:00 +15°C° 0 mm 2 mps 641 mmHg 95%
    06:00 +15°C° 0 mm 2 mps 641 mmHg 95%
    07:00 +17°C° 0 mm 2 mps 642 mmHg 87%
    08:00 +19°C° 0 mm 2 mps 643 mmHg 78%
    09:00 +21°C° 0 mm 2 mps 644 mmHg 70%
    10:00 +23°C° 0 mm 2 mps 644 mmHg 66%
    11:00 +25°C° 0 mm 2 mps 643 mmHg 61%
    12:00 +26°C° 0 mm 2 mps 643 mmHg 57%
    13:00 +26°C° 0.1 mm 2 mps 643 mmHg 59%
    14:00 +26°C° 0.1 mm 2 mps 642 mmHg 60%
    15:00 +25°C° 0.1 mm 2 mps 642 mmHg 62%
    16:00 +23°C° 0 mm 2 mps 641 mmHg 70%
    17:00 +21°C° 0 mm 1 mps 641 mmHg 79%
    18:00 +19°C° 0 mm 1 mps 641 mmHg 87%
    19:00 +19°C° 0 mm 1 mps 641 mmHg 89%
    20:00 +18°C° 0 mm 1 mps 641 mmHg 91%
    21:00 +16°C° 0 mm 1 mps 642 mmHg 93%
    22:00 +16°C° 0 mm 1 mps 642 mmHg 94%
    23:00 +16°C° 0 mm 1 mps 641 mmHg 95%
    Show more